TimeEDT,TemperatureF,Dew PointF,Humidity,Sea Level PressureIn,VisibilityMPH,Wind Direction,Wind SpeedMPH,Gust SpeedMPH,PrecipitationIn,Events,Conditions,WindDirDegrees,DateUTC
12:13 AM,50.0,31.1,48,30.02,10.0,SSW,15.0,18.4,N/A,,Clear,200,2012-10-09 04:13:00
12:33 AM,50.4,31.6,49,30.02,10.0,SSW,13.8,18.4,N/A,,Clear,200,2012-10-09 04:33:00
12:53 AM,50.4,31.8,49,30.02,10.0,SSW,12.7,19.6,N/A,,Scattered Clouds,210,2012-10-09 04:53:00
1:13 AM,50.2,31.8,49,30.01,10.0,SSW,13.8,21.9,N/A,,Clear,210,2012-10-09 05:13:00
1:33 AM,50.2,31.8,49,30.01,10.0,SSW,13.8,20.7,N/A,,Scattered Clouds,200,2012-10-09 05:33:00
1:53 AM,50.0,32.0,50,30.01,10.0,SSW,12.7,-,N/A,,Scattered Clouds,210,2012-10-09 05:53:00
2:13 AM,50.0,32.0,50,30.01,10.0,SSW,12.7,20.7,N/A,,Mostly Cloudy,200,2012-10-09 06:13:00
2:33 AM,49.1,32.0,52,30.01,10.0,SSW,13.8,19.6,N/A,,Scattered Clouds,200,2012-10-09 06:33:00
2:53 AM,49.1,32.0,52,30.01,10.0,SSW,12.7,-,N/A,,Clear,200,2012-10-09 06:53:00
3:13 AM,48.6,32.0,53,29.99,10.0,SSW,11.5,19.6,N/A,,Clear,200,2012-10-09 07:13:00
3:33 AM,48.6,32.4,54,29.98,10.0,SSW,13.8,19.6,N/A,,Clear,200,2012-10-09 07:33:00
3:53 AM,48.6,32.5,54,29.98,10.0,SSW,11.5,20.7,N/A,,Clear,200,2012-10-09 07:53:00
4:13 AM,48.6,32.5,54,29.98,10.0,SSW,12.7,18.4,N/A,,Scattered Clouds,200,2012-10-09 08:13:00
4:33 AM,48.6,32.5,54,29.98,10.0,SSW,13.8,19.6,N/A,,Mostly Cloudy,200,2012-10-09 08:33:00
4:53 AM,48.6,32.0,53,29.97,10.0,SSW,15.0,20.7,N/A,,Mostly Cloudy,200,2012-10-09 08:53:00
5:13 AM,48.7,32.0,52,29.97,10.0,SSW,16.1,21.9,N/A,,Mostly Cloudy,200,2012-10-09 09:13:00
5:33 AM,48.7,31.6,52,29.96,10.0,SSW,17.3,24.2,N/A,,Scattered Clouds,210,2012-10-09 09:33:00
5:53 AM,48.7,31.6,52,29.96,10.0,SSW,15.0,20.7,N/A,,Scattered Clouds,210,2012-10-09 09:53:00
6:13 AM,48.6,32.0,53,29.96,10.0,SSW,12.7,20.7,N/A,,Overcast,210,2012-10-09 10:13:00
6:33 AM,48.7,32.0,52,29.95,10.0,SSW,13.8,-,N/A,,Scattered Clouds,210,2012-10-09 10:33:00
6:53 AM,49.1,32.0,52,29.95,10.0,SSW,13.8,21.9,N/A,,Scattered Clouds,210,2012-10-09 10:53:00
7:13 AM,49.1,32.4,53,29.96,10.0,SSW,12.7,20.7,N/A,,Overcast,210,2012-10-09 11:13:00
7:33 AM,49.1,32.9,54,29.95,10.0,SSW,16.1,21.9,N/A,,Mostly Cloudy,210,2012-10-09 11:33:00
7:53 AM,49.1,33.6,55,29.95,10.0,SSW,16.1,19.6,N/A,,Scattered Clouds,200,2012-10-09 11:53:00
8:13 AM,48.9,33.8,56,29.94,10.0,SSW,13.8,20.7,N/A,,Clear,200,2012-10-09 12:13:00
8:33 AM,49.1,33.8,56,29.95,10.0,SSW,12.7,20.7,N/A,,Clear,210,2012-10-09 12:33:00
8:53 AM,49.6,34.0,55,29.95,10.0,SSW,15.0,23.0,N/A,,Clear,210,2012-10-09 12:53:00
9:13 AM,50.9,35.2,55,29.95,10.0,SSW,13.8,19.6,N/A,,Clear,200,2012-10-09 13:13:00
9:33 AM,52.0,35.1,53,29.94,10.0,SSW,24.2,32.2,N/A,,Clear,200,2012-10-09 13:33:00
9:53 AM,51.6,35.6,54,29.94,10.0,SSW,18.4,31.1,N/A,,Clear,200,2012-10-09 13:53:00
10:13 AM,53.4,35.6,51,29.93,10.0,SSW,19.6,26.5,N/A,,Clear,200,2012-10-09 14:13:00
10:33 AM,52.9,35.8,52,29.93,10.0,SSW,18.4,26.5,N/A,,Clear,200,2012-10-09 14:33:00
10:53 AM,52.7,36.9,55,29.92,10.0,SSW,17.3,24.2,N/A,,Clear,200,2012-10-09 14:53:00
11:13 AM,53.8,37.6,54,29.92,10.0,SSW,20.7,29.9,N/A,,Clear,200,2012-10-09 15:13:00
11:33 AM,55.0,38.1,53,29.92,10.0,SSW,19.6,26.5,N/A,,Clear,200,2012-10-09 15:33:00
11:53 AM,54.0,36.3,51,29.91,10.0,South,20.7,26.5,N/A,,Mostly Cloudy,190,2012-10-09 15:53:00
12:13 PM,53.8,36.7,52,29.91,10.0,SSW,19.6,27.6,N/A,,Overcast,200,2012-10-09 16:13:00
12:33 PM,54.3,37.4,53,29.90,10.0,South,17.3,28.8,N/A,,Mostly Cloudy,190,2012-10-09 16:33:00
12:53 PM,54.9,37.6,52,29.89,10.0,South,19.6,27.6,N/A,,Mostly Cloudy,180,2012-10-09 16:53:00
1:13 PM,55.9,38.3,52,29.88,10.0,South,18.4,28.8,N/A,,Mostly Cloudy,190,2012-10-09 17:13:00
1:33 PM,57.2,37.4,48,29.87,10.0,South,21.9,26.5,N/A,,Mostly Cloudy,190,2012-10-09 17:33:00
1:53 PM,57.4,37.9,48,29.85,10.0,South,23.0,29.9,N/A,,Scattered Clouds,190,2012-10-09 17:53:00
2:13 PM,58.1,36.5,44,29.84,10.0,SSW,20.7,26.5,N/A,,Mostly Cloudy,200,2012-10-09 18:13:00
2:33 PM,58.3,36.3,44,29.83,10.0,SSW,24.2,31.1,N/A,,Scattered Clouds,200,2012-10-09 18:33:00
2:53 PM,59.4,36.7,43,29.82,10.0,South,19.6,32.2,N/A,,Clear,190,2012-10-09 18:53:00
3:13 PM,59.9,38.5,45,29.82,10.0,SSW,17.3,24.2,N/A,,Clear,200,2012-10-09 19:13:00
3:33 PM,60.3,37.9,44,29.82,10.0,SSW,20.7,31.1,N/A,,Clear,200,2012-10-09 19:33:00
3:53 PM,61.0,37.0,41,29.82,10.0,SSW,16.1,34.5,N/A,,Scattered Clouds,200,2012-10-09 19:53:00
4:13 PM,61.7,35.8,38,29.80,10.0,South,23.0,33.4,N/A,,Scattered Clouds,190,2012-10-09 20:13:00
4:33 PM,61.7,36.0,38,29.80,10.0,South,20.7,31.1,N/A,,Clear,190,2012-10-09 20:33:00
4:53 PM,62.1,36.5,39,29.79,10.0,SSW,20.7,32.2,N/A,,Scattered Clouds,200,2012-10-09 20:53:00
5:13 PM,61.3,37.2,41,29.79,10.0,SSW,17.3,25.3,N/A,,Scattered Clouds,200,2012-10-09 21:13:00
5:33 PM,60.8,38.7,44,29.78,10.0,South,17.3,25.3,N/A,,Clear,190,2012-10-09 21:33:00
5:53 PM,60.8,39.0,45,29.77,10.0,South,18.4,26.5,N/A,,Clear,190,2012-10-09 21:53:00
6:13 PM,60.6,38.1,43,29.76,10.0,South,20.7,32.2,N/A,,Clear,190,2012-10-09 22:13:00
6:33 PM,59.5,39.2,47,29.76,10.0,South,15.0,23.0,N/A,,Clear,190,2012-10-09 22:33:00
6:54 PM,58.6,39.7,49,29.76,10.0,South,16.1,25.3,N/A,,Clear,190,2012-10-09 22:54:00
7:13 PM,58.6,40.6,51,29.75,10.0,South,17.3,23.0,N/A,,Clear,190,2012-10-09 23:13:00
7:33 PM,58.6,40.6,51,29.75,10.0,SSW,17.3,25.3,N/A,,Clear,200,2012-10-09 23:33:00
7:54 PM,58.5,40.8,52,29.76,10.0,SSW,16.1,25.3,N/A,,Clear,200,2012-10-09 23:54:00
8:13 PM,58.5,39.6,49,29.76,10.0,SSW,18.4,26.5,N/A,,Clear,200,2012-10-10 00:13:00
8:33 PM,58.1,40.3,52,29.77,10.0,South,11.5,19.6,N/A,,Clear,190,2012-10-10 00:33:00
8:53 PM,57.6,41.9,56,29.76,10.0,South,11.5,16.1,N/A,,Clear,190,2012-10-10 00:53:00
9:13 PM,57.2,42.1,57,29.76,10.0,South,13.8,20.7,N/A,,Clear,190,2012-10-10 01:13:00
9:33 PM,56.8,42.8,59,29.75,10.0,South,15.0,19.6,N/A,,Clear,190,2012-10-10 01:33:00
9:53 PM,56.5,41.2,57,29.74,10.0,South,16.1,25.3,N/A,,Clear,190,2012-10-10 01:53:00
10:13 PM,56.3,39.4,53,29.73,10.0,South,13.8,21.9,N/A,,Scattered Clouds,190,2012-10-10 02:13:00
10:33 PM,56.3,39.2,53,29.72,10.0,SSW,16.1,24.2,N/A,,Scattered Clouds,200,2012-10-10 02:33:00
10:53 PM,55.9,39.2,53,29.72,10.0,SSW,17.3,25.3,N/A,,Scattered Clouds,200,2012-10-10 02:53:00
11:13 PM,56.3,40.1,55,29.71,10.0,SSW,16.1,28.8,N/A,,Scattered Clouds,200,2012-10-10 03:13:00
11:33 PM,56.3,40.5,55,29.70,10.0,South,18.4,25.3,N/A,,Overcast,190,2012-10-10 03:33:00
11:53 PM,56.5,40.5,55,29.70,10.0,SSW,18.4,27.6,N/A,,Overcast,210,2012-10-10 03:53:00